STARLINK-2357 (47897 NORAD) Tracking and Keplerian Element Data

This shows tracking and keplerian element data for the satellite.

Feedback or suggestion? Click here.




ElementValue
Catalog47897
NameSTARLINK-2357
Epoch Orbit197
Epoch Day170.58334491
Epoch Year2021
RAAN95.5231
Inclination53.0503
Eccentricity0.0001189
Argument of Perigee85.2533
Mean Anonmoly161.8133
Mean Motion15.58416395
Decay Rate-0.01095691
L11 47897U 21021AP 21170.58334491 -.01095691 00000-0 -15583-1 0 9995
L22 47897 53.0503 95.5231 0001189 85.2533 161.8133 15.58416395 1970

Live tracking and technical data element details for STARLINK-2357 (NORAD 47897). STARLINK-2357 can be tracked NOW for your location showing map with azimuth and elevation plus other details from your city location.

Track the satellite on the map from your city or location and see movement details for azimuth, elevation, latitude, longitude, range, height, and movement on the map or in text.







IsCatalogInMostPopularTable: catalog: 47897, numindb: 50
Update: records affected: 1



GetName: 47897 STARLINK-2357

Hit Count: updated at: Mon, 21 Jun 2021 04:03:24 GMT